Location: ?????????
(54.7630°N, 39.4991°E)
Time: 09:41:45
(UTC+00:00)

Cosmos 2084 Rocket - Pass Details

Date: 14 April 2026
Orbit: 530 x 580 km, 62.8° (Epoch: 18 May)

Event Time Altitude Azimuth Distance (km) Brightness Sun altitude
Exits shadow 19:50:44 42° 246° (WSW) 790 4.0 -22.8°
Maximum altitude 19:52:02 76° 323° (NW) 570 3.4 -22.9°
Drops below altitude 10° 19:56:11 10° 50° (NE) 1,846 6.2 -23.1°
Sets 19:58:26 0° 52° (NE) 2,753 7.1 -23.2°
